Regional Weather Roundup
Issued by NWS

Home | Current Version | Previous Version | Graphics & Text | Print | Product List | Glossary On
Versions: 1 2 3 4 5 6 7 8 9 10 11 12 13 14 15 16 17 18 19 20 21 22 23 24 25 26 27 28 29 30 31 32 33 34 35 36 37 38 39 40 41 42 43 44 45 46 47 48 49 50
000
ASUS43 KLOT 011721
RWRIL

ILLINOIS REGIONAL WEATHER ROUNDUP
NATIONAL WEATHER SERVICE CHICAGO/ROMEOVILLE IL
1200 PM CDT WED APR 01 2015

NOTE: "FAIR" INDICATES FEW OR NO CLOUDS BELOW 12,000 FEET WITH NO
SIGNIFICANT WEATHER AND/OR OBSTRUCTIONS TO VISIBILITY.

* THESE STATIONS ARE NOT UNDER NWS QUALITY CONTROL. THEY ALSO MAY NOT
  REPORT WEATHER SUCH AS PRECIPITATION OR FOG.

ILZ001-002-007-009-015-016-024-011800-
NORTHWEST ILLINOIS

CITY           SKY/WX    TMP DP  RH WIND       PRES   REMARKS
MOLINE         SUNNY     76  34  21 S10       29.92F
STERLING*      SUNNY     73  39  29 SW6G17    29.96F
SAVANNA*       SUNNY     70  35  27 S9G16     29.94F
$$

ILZ003-004-008-010-011-017-018-011800-
NORTH CENTRAL ILLINOIS

CITY           SKY/WX    TMP DP  RH WIND       PRES   REMARKS
ROCKFORD       MOSUNNY   70  36  28 SE13      29.98F
FREEPORT*      SUNNY     67  38  34 S12G18    29.98F
ROCHELLE*      SUNNY     69  39  33 S14G20    29.99F
DE KALB*       SUNNY     64  39  40 SE10      30.00F
PERU*          SUNNY     69  37  30 S13       30.00F
$$

ILZ005-006-012>014-019>023-011800-
NORTHEAST ILLINOIS

CITY           SKY/WX    TMP DP  RH WIND       PRES   REMARKS
CHICAGO-OHARE  SUNNY     63  38  39 S8        30.02F
CHICAGO-MIDWAY SUNNY     65  39  38 S9        30.03F
AURORA         SUNNY     66  37  34 S8        30.01F
LANSING*       SUNNY     64  36  35 S9        30.04F
JOLIET*        SUNNY     66  41  39 S9        30.02F
WAUKEGAN       SUNNY     51  38  60 SE9       30.03F
DUPAGE AIRPORT SUNNY     65  38  36 S13       30.01F
KANKAKEE*      SUNNY     67  42  38 SW12      30.05F
WHEELING       SUNNY     63  36  36 VRB7      30.03F
MORRIS*        SUNNY     68  38  33 S10G18    30.00F
ROMEOVILLE*    SUNNY     64  36  35 S9        30.02F
NORTHERLY ISL    N/A     45  36  70 NE2         N/A
$$

LMZ740>746-011800-
SOUTHERN LAKE MICHIGAN

STATION/POSITION SKY/WX   TEMP    WIND        PRES    VSBY  WAVE
                          AIR SEA DIR/SP/G                  HT/PER
                          (F)     (DEG/KT/KT) (MB)    (MI)  (FT/S)
HARRISON CRIB              47     120/ 13/ 14   N/A
BURNHAM HARBOR             46      40/  2/  3   N/A
CALUMET HARBOR             58     210/  8/ 16 1016.8F
BURNS HARBOR               59     180/ 11/ 15 1018.6F
MICHIGAN CITY              42      30/ 10/ 11   N/A
$$

ILZ025>027-034>036-040-047-049-050-058-095>099-011800-
WEST-CENTRAL ILLINOIS

CITY           SKY/WX    TMP DP  RH WIND       PRES   REMARKS
QUINCY         PTSUNNY   72  36  26 S15G25    29.97F
GALESBURG*     SUNNY     73  37  26 S20       29.96F
MACOMB*        SUNNY     74  34  22 S18G24    29.98F
JACKSONVILLE*  MOSUNNY   73  40  29 S14       29.99F
PITTSFIELD*    PTSUNNY   73  37  27 S18G25    29.99F
$$

ILZ028>032-037-038-041>044-048-051>054-059>061-011800-
CENTRAL ILLINOIS

CITY           SKY/WX    TMP DP  RH WIND       PRES   REMARKS
PONTIAC        SUNNY     69  42  37 S14       30.03F
BLOOMINGTON    SUNNY     69  41  36 S17       30.03F
DECATUR        SUNNY     68  41  37 S16       30.03F
PEORIA         SUNNY     72  40  31 S14       29.99F
LACON*         SUNNY     70  36  28 SW9       29.98F
LINCOLN*       SUNNY     70  40  33 S16       29.99F
SPRINGFIELD    FAIR      71  40  32 S20       30.01F
TAYLORVILLE    MOSUNNY   66  43  42 S13       30.03S
$$

ILZ033-039-045-046-055>057-062-063-011800-
EAST-CENTRAL ILLINOIS

CITY           SKY/WX    TMP DP  RH WIND       PRES   REMARKS
CHAMPAIGN      SUNNY     67  39  35 S15       30.05F
DANVILLE*      SUNNY     63  41  45 S10       30.05S
RANTOUL*       SUNNY     67  42  40 S15G21    30.06S
MATTOON        SUNNY     63  41  44 S14       30.05F
PARIS*         SUNNY     63  42  46 S14G20    30.09F
$$

ILZ079-100>102-011800-
SOUTHWEST ILLINOIS

CITY           SKY/WX    TMP DP  RH WIND       PRES   REMARKS
ALTON          PTSUNNY   70  32  24 S14       30.03F
BELLEVILLE     SUNNY     71  43  36 S8        30.03F
CAHOKIA*       MOSUNNY   71  39  31 S12G21    30.03F
SPARTA*        SUNNY     67  40  37 S12G18    30.06F
$$

ILZ064>066-069>071-074>076-080>082-084>086-088>090-092>094-011800-
SOUTH-CENTRAL ILLINOIS

CITY           SKY/WX    TMP DP  RH WIND       PRES   REMARKS
CARBONDALE     SUNNY     70  40  33 S13       30.07S
CAIRO*         SUNNY     70  40  33 E10G16    30.07F
EFFINGHAM*     SUNNY     66  37  34 E13       30.08F
MARION         PTSUNNY   72  41  33 S9        30.07F
MT. VERNON     MOSUNNY   70  43  37 SE9       30.07F
CENTRALIA*     MOSUNNY   66  39  36 SE9       30.05F
SALEM*         MOSUNNY   68  38  33 S7        30.06F
METROPOLIS*    SUNNY     70  39  32 SE8       30.08S
$$

ILZ067-068-072-073-078-083-087-091-011800-
SOUTHEAST ILLINOIS

CITY           SKY/WX    TMP DP  RH WIND       PRES   REMARKS
LAWRENCEVILLE  SUNNY     65  40  39 SE9       30.10F
FLORA*         SUNNY     65  40  38 S8        30.07F
FAIRFIELD*     MOSUNNY   66  42  40 SE9       30.07F
HARRISBURG*    SUNNY     69  40  35 SE10      30.08F
ROBINSON*      SUNNY     63  38  39 SE7       30.11F
CARMI*         MOSUNNY   66  35  30 SE8       30.08F
$$

ABBREVIATIONS USED IN REMARKS
   TC - TEMPERATURE IN CELSIUS
  WCI - WIND CHILL INDEX
   HX - HEAT INDEX
  VSB - VISIBILITY
$$




USA.gov is the U.S. government's official web portal to all federal, state and local government web resources and services.